Regional Weather Roundup
Issued by NWS Sterling, VA

Current Version | Previous Version | Text Only | Print | Product List | Glossary On
Versions: 1 2 3 4 5 6 7 8 9 10 11 12 13 14 15 16 17 18 19 20 21 22 23 24 25 26 27 28 29 30 31 32 33 34 35 36 37 38 39 40 41 42 43 44 45 46 47 48 49 50
000
ASUS41 KLWX 261012
RWRLWX

REGIONAL WEATHER ROUNDUP
NATIONAL WEATHER SERVICE BALTIMORE MD/WASHINGTON DC
600 AM EDT TUE MAY 26 2020

Note: "FAIR" indicates few or no clouds below 12,000 feet
with no significant weather and/or obstructions to visibility.
 TC=TEMPERATURE CELSIUS

 * =Non NWS site. Station does not report precipitation (e.g. rain,
    snow, etc.), thunder, or fog.

DCZ001-MDZ009-015-VAZ040>042-051-053>054-261100-
WASHINGTON METRO

CITY           SKY/WX    TMP DP  RH WIND       PRES   REMARKS
WASHINGTON NAT FAIR      62  59  90 E6        30.20R
DULLES         FAIR      56  54  93 CALM      30.20R
ANDREWS AFB    FAIR      54  54 100 CALM      30.19R FOG
FT BELVOIR     FAIR      56  54  95 CALM      30.20R
QUANTICO       FAIR      58  57  97 W5        30.20R
LEESBURG*      FAIR      52  52 100 CALM      30.21R
MANASSAS*      MOCLDY    54  54 100 CALM      30.21R FOG
GAITHERSBURG*  FOG       55  54  94 CALM      30.22R VSB 1/2

$$

MDZ006>007-011-014-261100-
BALTIMORE METRO

CITY           SKY/WX    TMP DP  RH WIND       PRES   REMARKS
BWI AIRPORT    FAIR      57  54  89 CALM      30.19R FOG
BALT INNER HAR   N/A     63  61  93 MISG      30.20R
MARTIN STATE   FOG      N/A N/A N/A CALM      30.21  VSB 1/4
ANNAPOLIS      CLOUDY    61  59  93 CALM      30.19R
ABERDEEN*      CLOUDY    60  60  99 CALM      30.20R

$$

MDZ012-015-019>023-261100-
MARYLAND EASTERN SHORE

CITY           SKY/WX    TMP DP  RH WIND       PRES   REMARKS
OCEAN CITY     CLOUDY   N/A N/A N/A NE8       30.18R HAZE
SALISBURY      FOG       59  57  93 N5        30.18R VSB 1/4
EASTON*        FOG       57  55  94 CALM      30.23  VSB 1/4

$$

MDZ017>025-261100-
SOUTHERN MARYLAND

CITY           SKY/WX    TMP DP  RH WIND       PRES   REMARKS
PATUXENT RIVER FOG       58  58 100 VRB5      30.19R VSB 1/8
ST INIGOES     CLOUDY    65  60  84 CALM      30.18R
LEONARDTOWN*   NOT AVBL

$$

MDZ003>005-261100-
NORTH CENTRAL MARYLAND

CITY           SKY/WX    TMP DP  RH WIND       PRES   REMARKS
FREDERICK*     NOT AVBL
HAGERSTOWN APT FAIR      61  59  93 CALM      30.20R
WESTMINSTER*   NOT AVBL

$$

MDZ501>502-261100-
WESTERN MARYLAND

CITY           SKY/WX    TMP DP  RH WIND       PRES   REMARKS
OAKLAND*       NOT AVBL
CUMBERLAND*    NOT AVBL

$$

VAZ025>031-261100-
SHENANDOAH VALLEY

CITY           SKY/WX    TMP DP  RH WIND       PRES   REMARKS
WINCHESTER*    CLOUDY    55  55 100 CALM      30.18R FOG
FRONT ROYAL*   CLOUDY    59  59 100 CALM      30.18R
LURAY*         MOCLDY    61  61 100 CALM      30.19R FOG
NEW MARKET*    CLOUDY    60  59  96 CALM      30.18R
STAUNTON*      MOCLDY    56  56  98 CALM      30.21R FOG
WAYNESBORO*      N/A     58  58  99 CALM      30.19S

$$

WVZ021-048>050-054>055-261100-
EASTERN WEST VIRGINIA PANHANDLE

CITY           SKY/WX    TMP DP  RH WIND       PRES   REMARKS
MARTINSBURG    FAIR      57  56  96 CALM      30.18R FOG
PETERSBURG*    FOG       62  62 100 CALM      30.19R VSB 1/2

$$

VAZ036>039-050-261100-
CENTRAL FOOTHILLS

CITY           SKY/WX    TMP DP  RH WIND       PRES   REMARKS
CHARLOTTESVILL CLOUDY    64  61  90 CALM      30.18R
CULPEPER*      CLOUDY    58  56  95 CALM      30.20S FOG
ORANGE*        CLOUDY    55  55 100 CALM      30.19R FOG
GORDONSVILLE*  CLOUDY    56  56 100 CALM      30.18S FOG
WARRENTON*     FOG       59  56  91 CALM      30.20R VSB 1

$$

VAZ055>057-261100-
NORTH AND CENTRAL PIEDMONT

CITY           SKY/WX    TMP DP  RH WIND       PRES   REMARKS
FREDERICKSBRG* FAIR      56  56 100 CALM      30.19R
STAFFORD*      MOCLDY    54  54 100 CALM      30.23R FOG

$$

NCZ024-NYZ072-PAZ021-071-VAZ022-071-261100-
OTHER REGIONAL OBSERVATIONS

CITY           SKY/WX    TMP DP  RH WIND       PRES   REMARKS
NEW YORK CITY  CLOUDY    60  57  89 MISG      30.24R
PHILADELPHIA   FOG       59  58  96 CALM      30.21R VSB 1/4
PITTSBURGH     FAIR      64  60  87 SE3       30.13R
ROANOKE        CLOUDY    66  63  90 CALM      30.19R
RICHMOND       FOG       59  58  96 CALM      30.18R VSB 1/4
RALEIGH        MOCLDY    66  63  90 E3        30.14S

$$

ANZ530>537-261100-
MARINE OBSERVATIONS

STATION/POSITION TIME  TEMP    WIND        PRES
                       AIR SEA DIR/SP/G
                 (UTC) (F)     (DEG/KT/KT) (MB)
THOMAS PT LIGHT  1000   60 62   60/  3/  4 1023.4R
TOLCHESTER       0918   58 65  100/  4/  5 1022.5
GOOSES REEF      0936   61     140/  2/  2  966.2R
COVE POINT       0912          100/  4/  5 1022.2
BALT HARBOR      0930   63 66  120/  4/  5 1022.0R
BALT KEY BRIDGE  0930   63     120/  3/  4 1022.3R
WASH DC CHANNEL  0930   63 69   CALM  /  1 1022.2R
DAHLGREN         0918   58 68  350/  2/  2 1021.3
LEWISETTA        0930   63 67   90/  6/  7 1021.9R
SOLOMONS ISLAND  0930   61 65   80/  4/  5 1021.7R
PINEY POINT      0930           90/  3/  5   N/A
POTOMAC BUOY     0954   61      30/  6/ 10 1022.2R
CAMBRIDGE PIER   0930   58 66   50/  7/  7 1022.1R
BISHOPS HEAD     0930   60 68   60/  5/  6 1021.7R

$$





USA.gov is the U.S. government's official web portal to all federal, state and local government web resources and services.